RH
71 63 62 63 61 57 58 51 67 68 71 74 76 78 81 76 74 83 86 84 86 91
71 70 62 68 64 58 66 50 72 72 73 77 78 81 82 76 81 80 82 84 86 91
65 71 67 68 69 64 62 67 70 77 75 75 77 80 84 84 78 81 87 88 85 86
58 63 67 61 66 67 58 71 76 76 78 79 79 79 85 86 84 81 86 83 84 88
54 59 56 61 57 61 64 66 78 80 81 81 80 81 83 82 75 80 85 85 86 87
43 48 49 55 52 57 67 68 57 76 81 81 79 81 81 83 83 82 82 81 84 84
34 37 42 45 54 48 63 70 64 65 76 77 78 77 77 78 82 82 83 82 82 83
33 32 38 48 55 53 59 66 68 72 75 77 73 66 76 77 80 83 85 81 81 76
54 54 60 60 62 70 66 71 75 72 73 78 63 73 82 76 79 79 80 85 80 75
72 66 67 73 74 71 75 73 78 76 75 75 74 93 86 78 60 81 84 82 74 62
75 77 74 76 79 75 72 76 78 79 80 79 80 94 94 91 71 68 77 74 69 68
71 71 79 78 81 77 76 75 76 78 82 82 93 97 95 90 80 72 70 65 66 63
74 74 77 78 81 79 77 76 70 77 79 92 88 95 86 82 65 68 66 75 77 84
74 79 77 81 79 81 81 78 81 83 88 86 86 88 92 92 82 76 74 70 74 68
Wind_Speed
12 7 8 7 5 6 5 7 8 10 7 6 6 5 5 3 5 5 3 6 3 3
13 12 9 9 8 6 6 5 12 11 8 8 8 8 6 4 5 2 2 5 5 4
14 14 12 9 8 9 7 7 5 11 10 7 6 6 6 5 6 5 2 3 2 3
15 15 14 11 10 9 9 7 6 5 6 6 6 6 6 5 5 5 5 4 2 4
15 15 15 14 12 12 11 7 7 8 7 7 6 6 7 9 10 6 6 6 5 4
17 17 16 16 15 14 12 11 10 8 8 9 9 8 11 12 11 8 6 5 5 5
18 19 17 15 17 15 15 14 13 12 11 11 11 14 15 13 8 7 5 6 6 5
16 16 16 15 12 15 15 15 14 11 13 14 14 13 14 9 8 8 6 6 6 6
13 13 10 12 15 10 12 15 15 15 14 14 13 14 8 11 8 9 8 6 6 6
7 13 13 11 13 14 12 14 15 15 14 16 14 12 11 13 8 6 7 8 6 7
7 8 10 11 12 14 13 14 14 13 14 12 5 10 9 7 6 4 7 7 6 3
11 12 10 12 12 13 13 12 11 11 13 11 8 9 13 7 4 5 6 5 6 7
10 11 11 13 13 12 12 13 11 11 9 13 11 9 11 7 7 6 6 5 7 13
12 12 12 10 11 11 13 13 13 10 7 8 7 7 8 6 4 1 1 9 6 5
Wind_Direction
214 211 207 217 244 193 246 209 175 176 190 195 176 216 232 224 258 237 214 246 249 305
197 211 211 213 200 235 233 257 159 170 177 185 206 188 189 220 259 286 226 250 252 237
196 199 216 204 209 200 228 242 131 172 181 180 192 187 181 242 242 223 238 267 357 312
199 197 202 217 195 209 207 218 177 188 178 180 198 198 186 221 275 232 219 238 294 277
191 197 196 207 209 197 213 205 188 185 193 195 203 214 207 207 224 204 210 207 212 237
194 194 204 195 209 197 193 211 207 186 192 203 209 215 220 218 216 206 208 196 199 207
197 198 199 206 196 206 193 195 210 202 195 202 208 217 223 222 216 214 192 212 181 201
207 205 198 200 202 199 188 194 196 207 195 203 212 221 222 214 218 201 191 184 175 199
190 198 197 192 192 191 192 191 191 201 208 199 217 218 186 201 219 221 203 192 193 127
197 193 195 184 185 191 187 184 195 201 201 218 222 104 152 174 189 189 190 206 174 198
196 205 200 184 182 189 189 190 191 196 209 218 206 140 126 134 188 203 179 163 170 203
215 207 193 195 187 185 189 194 194 196 207 207 117 132 143 158 157 202 164 162 161 167
218 219 212 202 195 184 190 191 192 198 197 126 141 141 144 173 174 192 172 187 87 71
209 206 214 205 203 193 189 190 192 178 111 95 120 106 86 43 309 314 134 87 69 55